FW5278 Weather Reports


time (UTC)temp
C
wind
direction
speed
KPH
gust
KPH
rain 1hr
cm
rain 24hr
cm
rain mn
cm
humidity
%
barometer
mb
20260504081603 17 0 0.0 1.6 0.00 0.00 0.00 64 1008.7
20260504081054 17 0 0.0 0.0 0.00 0.00 0.00 63 1008.7
20260504080553 18 0 0.0 0.0 0.00 0.00 0.00 61 1008.6
20260504050553 25 297 1.6 4.8 0.00 0.00 0.00 42 1007.5
20260504045554 25 299 0.0 6.4 0.00 0.00 0.00 42 1007.6
20260504045053 25 313 1.6 6.4 0.00 0.00 0.00 42 1007.5
20260504044559 25 0 0.0 6.4 0.00 0.00 0.00 42 1007.6
20260504044053 25 297 1.6 6.4 0.00 0.00 0.00 42 1007.6
20260504043553 25 0 1.6 4.8 0.00 0.00 0.00 43 1007.4
20260504043058 25 0 1.6 4.8 0.00 0.00 0.00 43 1007.5
20260504042552 25 302 0.0 4.8 0.00 0.00 0.00 43 1007.4
20260504042058 26 302 0.0 6.4 0.00 0.00 0.00 43 1007.4
20260504041555 26 0 0.0 6.4 0.00 0.00 0.00 42 1007.3
20260504041055 26 315 0.0 3.2 0.00 0.00 0.00 42 1007.3
20260504040553 26 298 0.0 6.4 0.00 0.00 0.00 42 1007.3
20260504040105 26 312 0.0 9.7 0.00 0.00 0.00 41 1007.2
20260504035552 27 285 1.6 9.7 0.00 0.00 0.00 40 1007.1
20260504035053 27 309 3.2 9.7 0.00 0.00 0.00 40 1007.1
20260504034600 27 316 4.8 9.7 0.00 0.00 0.00 40 1007.0
20260504034052 27 309 1.6 8.0 0.00 0.00 0.00 40 1007.0
20260504033552 27 326 1.6 6.4 0.00 0.00 0.00 40 1006.9
20260504033127 27 287 1.6 6.4 0.00 0.00 0.00 39 1006.9
20260504032554 27 305 0.0 3.2 0.00 0.00 0.00 39 1006.8
20260504032051 27 315 0.0 4.8 0.00 0.00 0.00 39 1006.8
20260504031557 28 299 1.6 4.8 0.00 0.00 0.00 38 1006.7
20260504031053 28 0 1.6 4.8 0.00 0.00 0.00 37 1006.7
20260504030553 28 299 1.6 4.8 0.00 0.00 0.00 37 1006.6
20260504030056 29 309 1.6 6.4 0.00 0.00 0.00 36 1006.6
20260504025553 29 307 1.6 6.4 0.00 0.00 0.00 35 1006.6
20260504025053 30 304 3.2 6.4 0.00 0.00 0.00 34 1006.6
20260504024556 30 314 1.6 6.4 0.00 0.00 0.00 33 1006.5
20260504024052 31 311 1.6 9.7 0.00 0.00 0.00 32 1006.5
20260504023553 31 295 3.2 9.7 0.00 0.00 0.00 31 1006.4
20260504023102 31 286 1.6 6.4 0.00 0.00 0.00 31 1006.5
20260504022553 31 307 1.6 6.4 0.00 0.00 0.00 31 1006.5
20260504022049 31 281 1.6 6.4 0.00 0.00 0.00 31 1006.5
20260504021556 31 326 1.6 12.9 0.00 0.00 0.00 30 1006.5
20260504021049 31 263 3.2 12.9 0.00 0.00 0.00 31 1006.4
20260504020549 31 299 3.2 12.9 0.00 0.00 0.00 31 1006.5
20260504020100 31 314 1.6 6.4 0.00 0.00 0.00 31 1006.5
20260504015553 31 285 1.6 6.4 0.00 0.00 0.00 31 1006.5
20260504015054 31 297 1.6 12.9 0.00 0.00 0.00 32 1006.6
20260504014555 31 263 3.2 12.9 0.00 0.00 0.00 32 1006.5
20260504014053 31 309 3.2 12.9 0.00 0.00 0.00 31 1006.6
20260504013553 31 305 6.4 12.9 0.00 0.00 0.00 31 1006.7
20260504013107 31 285 3.2 12.9 0.00 0.00 0.00 31 1006.8
20260504012553 31 290 4.8 12.9 0.00 0.00 0.00 30 1006.8
20260504012053 31 307 3.2 9.7 0.00 0.00 0.00 30 1006.7
20260504011556 31 288 3.2 9.7 0.00 0.00 0.00 29 1006.7
20260504011052 32 191 3.2 9.7 0.00 0.00 0.00 29 1006.8
20260504010552 32 305 3.2 14.5 0.00 0.00 0.00 29 1006.9
20260504010111 32 288 4.8 14.5 0.00 0.00 0.00 28 1006.9
20260504005556 33 302 1.6 9.7 0.00 0.00 0.00 26 1006.9
20260504005053 33 290 3.2 14.5 0.00 0.00 0.00 27 1006.9
20260504004619 33 250 4.8 14.5 0.00 0.00 0.00 26 1007.1
20260504004053 33 297 3.2 9.7 0.00 0.00 0.00 26 1007.0
20260504003554 33 305 1.6 14.5 0.00 0.00 0.00 27 1007.1
20260504003054 33 179 1.6 14.5 0.00 0.00 0.00 27 1007.1
20260504002553 33 209 4.8 14.5 0.00 0.00 0.00 26 1007.0
20260504002053 33 323 1.6 9.7 0.00 0.00 0.00 27 1007.1
20260504001604 33 295 3.2 9.7 0.00 0.00 0.00 26 1007.1
20260504001054 33 301 3.2 9.7 0.00 0.00 0.00 27 1007.1
20260504000553 33 314 1.6 9.7 0.00 0.00 0.00 27 1007.1
20260504000055 33 278 3.2 8.0 0.00 0.00 0.00 26 1007.1
20260503235556 33 99 1.6 9.7 0.00 0.00 0.00 27 1007.2
20260503235053 33 305 4.8 9.7 0.00 0.00 0.00 27 1007.2
20260503234556 33 99 1.6 9.7 0.00 0.00 0.00 27 1007.3
20260503234053 33 280 3.2 9.7 0.00 0.00 0.00 27 1007.4
20260503233553 33 304 3.2 11.3 0.00 0.00 0.00 28 1007.3
20260503233054 33 313 3.2 11.3 0.00 0.00 0.00 28 1007.5
20260503232552 33 311 3.2 9.7 0.00 0.00 0.00 28 1007.6
20260503232052 33 282 3.2 12.9 0.00 0.00 0.00 28 1007.5
20260503231557 33 303 3.2 12.9 0.00 0.00 0.00 28 1007.6
20260503231053 33 297 1.6 8.0 0.00 0.00 0.00 28 1007.5
20260503230553 33 314 1.6 8.0 0.00 0.00 0.00 27 1007.7
20260503225553 33 325 1.6 9.7 0.00 0.00 0.00 29 1007.8
20260503225052 33 297 0.0 9.7 0.00 0.00 0.00 27 1007.9
20260503224554 33 328 3.2 9.7 0.00 0.00 0.00 26 1008.0
20260503224052 32 100 3.2 11.3 0.00 0.00 0.00 28 1008.0
20260503223552 32 271 4.8 11.3 0.00 0.00 0.00 27 1008.1
20260503223059 32 92 4.8 9.7 0.00 0.00 0.00 28 1008.1
20260503222553 32 260 1.6 11.3 0.00 0.00 0.00 26 1008.2
20260503222053 32 102 4.8 11.3 0.00 0.00 0.00 29 1008.3
20260503221555 33 88 3.2 8.0 0.00 0.00 0.00 29 1008.3
20260503221054 32 275 1.6 8.0 0.00 0.00 0.00 29 1008.4
20260503220552 32 79 3.2 8.0 0.00 0.00 0.00 28 1008.6
20260503220054 32 353 1.6 8.0 0.00 0.00 0.00 30 1008.7
20260503215551 32 79 3.2 8.0 0.00 0.00 0.00 30 1008.8
20260503215051 32 157 1.6 9.7 0.00 0.00 0.00 32 1008.8
20260503214554 32 131 3.2 9.7 0.00 0.00 0.00 31 1008.8
20260503214056 32 303 1.6 8.0 0.00 0.00 0.00 31 1008.9
20260503213551 32 300 1.6 8.0 0.00 0.00 0.00 31 1009.0
20260503213106 32 98 3.2 8.0 0.00 0.00 0.00 32 1009.1
20260503212555 32 263 1.6 8.0 0.00 0.00 0.00 31 1009.1
20260503212053 32 77 1.6 8.0 0.00 0.00 0.00 33 1009.2
20260503211553 32 274 1.6 8.0 0.00 0.00 0.00 34 1009.2
20260503211052 31 280 1.6 8.0 0.00 0.00 0.00 35 1009.3
20260503210555 31 302 1.6 9.7 0.00 0.00 0.00 36 1009.3
20260503210100 31 295 1.6 9.7 0.00 0.00 0.00 34 1009.4
20260503205552 31 135 1.6 8.0 0.00 0.00 0.00 37 1009.4
20260503205052 30 315 1.6 8.0 0.00 0.00 0.00 37 1009.5
20260503204555 30 319 3.2 8.0 0.00 0.00 0.00 38 1009.5
20260503204053 30 105 3.2 8.0 0.00 0.00 0.00 38 1009.6
20260503203554 30 281 3.2 9.7 0.00 0.00 0.00 38 1009.7
20260503203101 30 155 1.6 14.5 0.00 0.00 0.00 39 1009.8
20260503202552 30 260 1.6 14.5 0.00 0.00 0.00 39 1009.8
20260503202052 30 255 3.2 14.5 0.00 0.00 0.00 40 1009.9
20260503201558 30 175 1.6 8.0 0.00 0.00 0.00 41 1009.9
20260503201053 29 302 1.6 8.0 0.00 0.00 0.00 42 1010.1
20260503200552 29 289 1.6 9.7 0.00 0.00 0.00 43 1010.0
20260503200100 28 110 1.6 9.7 0.00 0.00 0.00 42 1010.1
20260503195551 28 300 3.2 9.7 0.00 0.00 0.00 42 1010.2
20260503195051 28 289 1.6 8.0 0.00 0.00 0.00 43 1010.3
20260503194555 28 170 1.6 8.0 0.00 0.00 0.00 45 1010.3
20260503194051 28 352 3.2 8.0 0.00 0.00 0.00 45 1010.4
20260503193550 28 302 3.2 8.0 0.00 0.00 0.00 45 1010.5
20260503193056 27 285 1.6 6.4 0.00 0.00 0.00 46 1010.7
20260503192552 27 85 1.6 6.4 0.00 0.00 0.00 45 1010.7
20260503192051 27 90 3.2 6.4 0.00 0.00 0.00 45 1010.8
20260503191620 27 210 0.0 4.8 0.00 0.00 0.00 48 1010.8
20260503191052 27 143 1.6 6.4 0.00 0.00 0.00 48 1010.8
20260503190550 26 257 1.6 6.4 0.00 0.00 0.00 49 1011.0
20260503190054 26 257 1.6 6.4 0.00 0.00 0.00 49 1011.0
20260503185556 26 95 1.6 6.4 0.00 0.00 0.00 49 1011.1
20260503185052 25 314 1.6 6.4 0.00 0.00 0.00 51 1011.1
20260503184559 25 97 1.6 8.0 0.00 0.00 0.00 51 1011.2
20260503184054 25 92 3.2 8.0 0.00 0.00 0.00 51 1011.3
20260503183552 25 287 1.6 4.8 0.00 0.00 0.00 52 1011.3
20260503183112 25 0 1.6 9.7 0.00 0.00 0.00 53 1011.5
20260503182549 25 200 1.6 9.7 0.00 0.00 0.00 53 1011.5
20260503182053 25 314 1.6 4.8 0.00 0.00 0.00 54 1011.5
20260503181555 24 243 1.6 6.4 0.00 0.00 0.00 55 1011.6
20260503181052 23 334 1.6 6.4 0.00 0.00 0.00 57 1011.6
20260503180555 23 106 1.6 9.7 0.00 0.00 0.00 57 1011.8
20260503180055 23 298 1.6 9.7 0.00 0.00 0.00 58 1011.7
20260503175551 22 318 3.2 6.4 0.00 0.00 0.00 59 1011.8
20260503175052 22 281 1.6 8.0 0.00 0.00 0.00 59 1011.8
20260503174553 22 92 1.6 8.0 0.00 0.00 0.00 58 1011.9
20260503174052 22 309 1.6 6.4 0.00 0.00 0.00 61 1011.9
20260503173552 22 93 1.6 6.4 0.00 0.00 0.00 61 1012.0
20260503173118 21 288 1.6 8.0 0.00 0.00 0.00 63 1012.0
20260503172552 21 164 0.0 8.0 0.00 0.00 0.00 65 1012.1
20260503172052 21 123 3.2 8.0 0.00 0.00 0.00 65 1012.1
20260503171554 21 310 1.6 6.4 0.00 0.00 0.00 65 1012.1
20260503171049 20 304 1.6 8.0 0.00 0.00 0.00 67 1012.1
20260503170553 20 115 1.6 8.0 0.00 0.00 0.00 66 1012.1
20260503150552 15 287 0.0 0.0 0.00 0.00 0.00 96 1012.5
20260503131051 10 0 0.0 0.0 0.00 0.00 0.00 94 1012.2
20260503130548 10 0 0.0 0.0 0.00 0.00 0.00 94 1012.2
20260503120114 11 0 0.0 0.0 0.00 0.00 0.00 94 1012.3
20260503110553 12 0 0.0 1.6 0.00 0.00 0.00 94 1012.4
20260503100104 12 0 0.0 0.0 0.00 0.00 0.00 92 1012.4